Regional Weather Roundup
Issued by NWS Pendleton, OR

Home | Current Version | Previous Version | Text Only | Print | Product List | Glossary On
Versions: 1 2 3 4 5 6 7 8 9 10 11 12 13 14 15 16 17 18 19 20 21 22 23 24 25 26 27 28 29 30 31 32 33 34 35 36 37 38 39 40 41 42 43 44 45 46 47 48 49 50
000
ASUS46 KPDT 011604
RWRPDT
PENDLETON REGIONAL WEATHER ROUNDUP
NATIONAL WEATHER SERVICE PENDLETON OREGON
900 AM PDT SUN MAY 1 2016

NOTE: FAIR INDICATES FEW OR NO CLOUDS BELOW 12,000 FEET WITH NO
SIGNIFICANT WEATHER AND/OR OBSTRUCTIONS TO VISIBILITY.

# INDICATES UNOFFICIAL STATION AND DATA

WAZ520-011710-
EAST SLOPES OF WASHINGTON CASCADES

CITY            SKY/WX      TMP DP  RH  WIND    PRES   REMARKS
#CLE ELUM 2NW   N/A         54  40  59  CALM    N/A
#CLE ELUM LAKE  N/A         49  40  71  CALM    30.19S
#NELSON 3SW     N/A         50  44  80  CALM    30.40F
#NILE           N/A         48  39  71  W2      29.49F
#RONALD 2NW     N/A         47  N/A N/A CALM    30.10S
#TROUT LAKE 1NE N/A         57  46  67  CALM    30.15F
#TROUT LAKE 1E  N/A         51  47  86  CALM    30.12F
$$

WAZ521-011710-
SIMCOE HIGHLANDS

CITY            SKY/WX      TMP DP  RH  WIND    PRES   REMARKS
#BICKLETON HS   N/A         53  33  46  N15     N/A
#CENTERVILLE 1SWN/A         58  45  62  CALM    30.11F
#GOLDENDALE 1NE N/A         61  33  35  N7      N/A
#GOODNOE HILLS  N/A         60  46  60  E5      30.07F
#LYLE 6NE       N/A         58  46  64  CALM    30.12F
$$

WAZ026-011710-
KITTITAS VALLEY

CITY            SKY/WX      TMP DP  RH  WIND    PRES   REMARKS
ELLENSBURG AP   SUNNY       55  42  61  CALM    30.23F
YTC-OPS AREA    SUNNY       55  37  51  N17G28  30.23F
#ELLENSBURG 3NE N/A         52  45  77  CALM    30.22F
#ELLENSBURG     N/A         58  46  64  CALM    N/A
#ELLENSBURG 1E  N/A         48  N/A N/A CALM    N/A
#KITTITAS 3S    N/A         48  44  86  CALM    30.21F
#THORP 6N       N/A         50  42  74  N3      30.23F
$$

WAZ027-011710-
YAKIMA VALLEY

CITY            SKY/WX      TMP DP  RH  WIND    PRES   REMARKS
SUNNYSIDE AP    SUNNY       58  45  62  CALM    30.19F
YAKIMA AIRPORT  SUNNY       63  42  46  W9      30.21F
YAKIMA-VAGABOND SUNNY       63  39  41  E15     30.19S
#DONALD 2NE     N/A         68  18  15  NW2     29.04S
#GRANDVIEW      N/A         58  43  57  W1      30.19F
#MABTON         N/A         60  46  60  W5      30.19S
#NACHES 2SW     N/A         60  44  55  N2      30.22S
#TERRACE HTS    N/A         60  43  53  N1      30.14F
#WEST VALLEY    N/A         58  43  57  CALM    30.18F
#W YAKIMA       N/A         59  44  57  N3      30.19F
#WILEY CITY 3W  N/A         62  39  43  CALM    30.18S
$$

WAZ028-011710-
LOWER COLUMBIA BASIN...WASHINGTON

CITY            SKY/WX      TMP DP  RH  WIND    PRES   REMARKS
PASCO           SUNNY       55  45  69  NW3     30.20F
PROSSER AWOS    N/A         61  46  58  SW3     30.22F
RICHLAND AWOS   SUNNY       61  47  60  N9      30.20F
#BASIN CITY 5SW N/A         58  48  69  E3      30.16S
#BENTON CITY    N/A         59  47  64  E5      30.10F
#CONNELL 5N     N/A         60  46  60  NE6     30.19S
#ELTOPIA 6NW    N/A         58  49  72  CALM    29.16S
#KAHLOTUS       N/A         55  46  72  SE10    30.18F
#KENNEWICK 3S   N/A         53  47  80  CALM    30.19S
#PATERSON       N/A         53  46  77  S1      30.17F
#SAGEMOOR 2W    N/A         55  48  77  CALM    30.03F
#WEST PASCO     N/A         57  47  69  N1      30.29F
$$

WAZ029-011710-
FOOTHILLS OF THE BLUES...WASHINGTON

CITY            SKY/WX      TMP DP  RH  WIND    PRES   REMARKS
WALLA WALLA AP  SUNNY       53  45  74  S3      30.18S
#CLYDE 6NW      N/A         56  46  69  E15     30.16F
#LOWDEN 2SE     N/A         53  47  80  CALM    30.15F
#PLEASANT VIEW 1N/A         51  45  80  N3      30.22F
#PRESCOTT       N/A         56  49  77  CALM    30.16F
#WHITMAN COLLEGEN/A         52  46  80  CALM    30.23S
#WAITSBURG 5S   N/A         52  46  80  CALM    30.26F
#WALLA WALLA U  N/A         51  46  83  CALM    30.19S
#WHITMAN MISSIONN/A         50  48  93  CALM    30.20F
$$

WAZ030-011710-
BLUE MOUNTAINS...WASHINGTON

CITY            SKY/WX      TMP DP  RH  WIND    PRES   REMARKS
#DIXIE 5SE      N/A         52  40  63  NE5     30.11S
$$

ORZ009-041-WAZ024-011710-
COLUMBIA RIVER GORGE

CITY            SKY/WX      TMP DP  RH  WIND    PRES   REMARKS
HOOD RIVER AP   SUNNY       54  45  71  CALM    30.18F
THE DALLES AP   SUNNY       57  44  62  NE5     30.17F
#ARLINGTON AIRPON/A         57  46  67  CALM    30.17F
#CELILO DOT     N/A         57  45  64  CALM    N/A
#MOSIER 1S      N/A         54  44  69  CALM    30.15F
#MURDOCK        N/A         55  46  72  CALM    30.14F

$$

ORZ510-011710-
NORTH CENTRAL OREGON

CITY            SKY/WX      TMP DP  RH  WIND    PRES   REMARKS
#ANTELOPE       N/A         54  43  66  NE12    30.01F
#COW CYN RST AREN/A         53  40  61  N10     N/A
#DUFUR 9E       N/A         55  43  64  NE9     30.19S
#GRASS VALLEY   N/A         55  43  64  N7      N/A
#GRASS VALLEY 1SN/A         57  45  64  E13     30.10F
#KENT DOT       N/A         54  39  57  N12     N/A
#MAUPIN SCHOOL  N/A         55  43  64  CALM    30.21F
#MORO SCHOOL    N/A         57  50  77  CALM    30.17F
#SHANIKO 5WSW   N/A         51  38  61  NE16    N/A
#TYGH VALLEY 2NEN/A         54  44  69  CALM    30.15F
#WAPANITIA AIRPON/A         57  45  64  NE3     30.17S
#WASCO DOT      N/A         62  45  54  NE6     N/A
#WASCO 5NE      N/A         59  48  67  CALM    30.16F
$$

ORZ511-011710-
CENTRAL OREGON

CITY            SKY/WX      TMP DP  RH  WIND    PRES   REMARKS
BEND AIRPORT    SUNNY       50  37  61  CALM    30.15F
MADRAS AIRPORT  SUNNY       52  41  66  N5      30.19F
PRINEVILLE AP   SUNNY       52  36  54  CALM    30.16F
REDMOND AIRPORT SUNNY       52  39  61  CALM    30.15F
#ASHWOOD SCHOOL N/A         52  41  66  CALM    30.11F
#BEND 1SW       N/A         48  40  74  N1      N/A
#BEND-AWBREY    N/A         48  41  77  CALM    30.12
#BEND-KIM LN    N/A         50  42  74  CALM    30.13F
#CULVER         N/A         52  42  69  N5      30.10F
#LAKE BILLY CHINN/A         55  N/A N/A W2      30.19F
#POWELL BUTTE   N/A         62  44  52  N1      30.01F
#PRINEVILLE 3N  N/A         49  40  71  W1      30.13F
#WARM SPRINGS   N/A         55  43  64  CALM    30.13F

$$


ORZ509-011710-
EAST SLOPES OF OREGON CASCADES

CITY            SKY/WX      TMP DP  RH  WIND    PRES   REMARKS
SISTERS AWOS    N/A         52  39  61  VRB6    30.12F
#BLUE BOX PASS  N/A         47  N/A N/A N10     N/A
#BLACK BUTTE RNCN/A         49  43  80  CALM    30.13F
#CAMP SHERMAN   N/A         47  39  74  CALM    30.22F
#LA PINE 4NW    N/A         47  38  71  CALM    30.15F
#LAVA BUTTE DOT N/A         45  37  73  CALM    N/A
#SISTERS AIRPOR N/A         52  46  80  N5      30.17S
#SISTERS ODOT   N/A         51  N/A N/A NW6     N/A
#SISTERS 3N     N/A         52  41  66  E3      30.14S
#SUNRIVER       N/A         48  40  74  NE3     30.13F
#WANOGA BUTTE D N/A         41  33  73  E12     N/A    WCI 34

$$

ORZ044-011710-
LOWER COLUMBIA BASIN...OREGON

CITY            SKY/WX      TMP DP  RH  WIND    PRES   REMARKS
HERMISTON       SUNNY       56  45  66  CALM    30.18F
#BOARDMAN 8SW   N/A         57  47  69  NE6     30.17S
#ECHO 8SW       N/A         55  46  72  CALM    30.19S
#I-84 EX 198 DOTN/A         55  45  69  CALM    N/A
#UMATILLA SCHOOLN/A         57  49  75  CALM    30.16R
#UMATILLA       N/A         55  45  69  E2      30.12F
$$

ORZ507-011710-
NORTHERN FOOTHILLS OF THE BLUES

CITY            SKY/WX      TMP DP  RH  WIND    PRES   REMARKS
PENDLETON AIRPT SUNNY       53  42  66  CALM    30.17F
#ADAMS 3WNW     N/A         54  45  71  S2      30.18F
#ATHENA         N/A         52  44  74  CALM    30.20F
#CAYUSE         N/A         55  45  69  CALM    30.16F
#HELIX SCHOOL   N/A         52  44  74  CALM    30.17F
#HELIX 3N       N/A         53  46  77  CALM    30.13F
#HELIX 6SW      N/A         54  46  74  N1      30.16F
#HOLDMAN 5SE    N/A         54  46  74  CALM    30.16F
#HOLDMAN 6E     N/A         55  45  69  CALM    29.98S
#M-F FERNDALE   N/A         49  46  89  CALM    30.17F
#M-F GROVE ELEM N/A         53  43  69  CALM    30.15F
#M-FREEWATER 5SEN/A         55  47  74  CALM    30.16F
#PENDLETON DNTN N/A         52  45  77  CALM    30.19F
#PDT AQUATIC CTRN/A         51  41  68  CALM    30.16F
#PENDLETON 7NW  N/A         58  47  67  CALM    27.45S
#PILOT ROCK     N/A         56  41  57  CALM    30.16F
#TUTUILLA       N/A         54  46  74  CALM    30.19F
#UMAPINE 2E     N/A         52  47  83  NW2     30.16S

$$

ORZ508-011710-
SOUTHERN FOOTHILLS OF THE BLUES

CITY            SKY/WX      TMP DP  RH  WIND    PRES   REMARKS
#AJAX           N/A         56  39  53  N12     27.91S
#CONDON SCHOOL  N/A         53  43  69  N8      30.11F
#CONDON 5W      N/A         50  40  68  NE8     30.13S
#FOSSIL SCHOOL  N/A         56  44  64  CALM    30.10F
#HEPPNER EOC    N/A         57  44  62  CALM    30.09F
#HEPPNER 4NE    N/A         53  44  71  N1      30.16S
#LEXINGTON 2SE  N/A         57  45  64  NW1     30.15F
#RUGGS 2SW      N/A         53  42  66  N2      30.17F

$$

ORZ502-503-011710-
BLUE MOUNTAINS

CITY            SKY/WX      TMP DP  RH  WIND    PRES   REMARKS
MEACHAM         SUNNY       53  38  57  E6      30.17F
#BATTLE MTN DOT N/A         50  45  83  CALM    N/A
#GREENHORN 9SW  N/A         48  40  74  CALM    26.36F
#HARDMAN 10S    N/A         52  40  63  CALM    30.26R
#HEPPNER 15SE   N/A         47  41  79  CALM    25.67F
#LADD CYN SMT   N/A         48  37  65  NW6     N/A
#LADD CREEK ODOTN/A         47  41  79  NE6     N/A
#N POWDER DOT   N/A         51  43  74  CALM    N/A
#PIKES PEAK     N/A         54  40  59  N1      27.99S
#TOLLGATE       N/A         45  36  70  N7      30.03S
#UKIAH          N/A         46  42  86  CALM    30.11F
#WESTON 4E      N/A         58  41  53  N1      30.14F
$$

ORZ505-011710-
JOHN DAY BASIN

CITY            SKY/WX      TMP DP  RH  WIND    PRES   REMARKS
JOHN DAY        SUNNY       49  38  66  CALM    30.17F
#DAYVILLE SCHOOLN/A         50  37  61  E1      30.13F
#MITCHELL 8NW   N/A         52  39  61  CALM    30.33F
#MONUMENT HS    N/A         51  39  63  CALM    30.15F
#MT. VERNON 5SE N/A         50  39  66  NE1     30.12F
#WINLOCK        N/A         57  43  59  SE8     30.12F
$$

ORZ506-011710-
OCHOCO AND JOHN DAY HIGHLANDS

CITY            SKY/WX      TMP DP  RH  WIND    PRES   REMARKS
#BUCK CREEK DOT N/A         48  39  71  CALM    N/A
#HORSE RIDGE DO N/A         48  35  60  CALM    N/A
#KEYES SMT DOT  N/A         48  37  65  N1      N/A
#PAULINA SCHOOL N/A         52  39  61  CALM    29.37R
#PINE MTN OBS   N/A         40  34  79  E2      N/A
#SENECA         N/A         43  N/A N/A CALM    N/A
#SENECA 9NW     N/A         42  37  82  CALM    30.14S
$$

ORZ049-011710-
GRANDE RONDE VALLEY

CITY            SKY/WX      TMP DP  RH  WIND    PRES   REMARKS
LA GRANDE       SUNNY       50  36  58  N5      30.19S
#COVE           N/A         49  46  89  CALM    30.21S
#COVE SCHOOL    N/A         52  44  74  CALM    30.19S
#ELGIN 3N       N/A         57  42  57  N3      30.15F
#ELGIN 1E       N/A         49  44  83  CALM    N/A
#ISLAND CITY 4N N/A         54  47  77  CALM    30.13F
#LADD CYN DOT   N/A         50  43  77  NW8     N/A
#UNION 1S       N/A         51  43  74  CALM    30.10F
$$

ORZ050-011710-
WALLOWA COUNTY

CITY            SKY/WX      TMP DP  RH  WIND    PRES   REMARKS
#IMNAHA SCHOOL  N/A         50  46  86  N3      30.19F
#IMNAHA 10S     N/A         46  44  93  CALM    30.17F
#JOSEPH 3N      N/A         49  41  74  CALM    30.19F
#JOSEPH 3W      N/A         49  41  74  E3      30.00F
#PROMISE 1S     N/A         48  42  80  CALM    30.30R



$$



USA.gov is the U.S. government's official web portal to all federal, state and local government web resources and services.